Вернуться в каталог

STARLINK-31578

АктивенСвязьVLEO
NORAD 59321·PAYLOAD·🇺🇸 United States

Запущен Mar 25, 2024 с Cape Canaveral Space Force Station

Loading…

Ближайшие Пролёты (ближайшие 24 часа)

TLE

СвежийSource: CelesTrak SupGP

Эпоха: Sep 15, 2026, 03:29 UTC

1 59321C 24057B   26258.14562500 -.00035355  00000+0 -12809-2 0  2586
2 59321  43.0001 196.6897 0001266 276.4120 275.8583 15.27586477    14

Отслеживайте STARLINK-31578 в реальном времени с AllMySat

Download on the App Store